This is the latest recevied weather packets stored in our database for station/object IZ8QAD-4. If no packets are shown the sender has not sent any weather packets the latest 10 day(s).
| Time | Temp. | Humidity | Pressure | Rain* | Wind** | Luminosity | Snow |
|---|---|---|---|---|---|---|---|
| 1777378581 | 23.89° C | 38% | 968.1 hPa | - | - | - | - |
| 1777376781 | 23.89° C | 39% | 968 hPa | - | - | - | - |
| 1777374980 | 23.89° C | 41% | 968.1 hPa | - | - | - | - |
| 1777373180 | 23.89° C | 45% | 968.4 hPa | - | - | - | - |
| 1777371380 | 23.33° C | 43% | 968.6 hPa | - | - | - | - |
| 1777369580 | 22.78° C | 39% | 968.6 hPa | - | - | - | - |
| 1777367780 | 22.78° C | 38% | 968.7 hPa | - | - | - | - |
| 1777365979 | 22.78° C | 39% | 968.8 hPa | - | - | - | - |
| 1777364179 | 22.78° C | 38% | 968.9 hPa | - | - | - | - |
| 1777362380 | 22.78° C | 39% | 968.7 hPa | - | - | - | - |
| 1777360580 | 23.33° C | 39% | 968.9 hPa | - | - | - | - |
| 1777358780 | 23.89° C | 37% | 969 hPa | - | - | - | - |
| 1777356980 | 23.89° C | 37% | 969.3 hPa | - | - | - | - |
| 1777355180 | 23.89° C | 38% | 969.2 hPa | - | - | - | - |
| 1777353379 | 23.89° C | 39% | 969.2 hPa | - | - | - | - |
| 1777351579 | 23.89° C | 40% | 969 hPa | - | - | - | - |
| 1777349778 | 23.89° C | 40% | 968.8 hPa | - | - | - | - |
| 1777347978 | 23.89° C | 40% | 968.8 hPa | - | - | - | - |
| 1777346178 | 23.89° C | 40% | 968.8 hPa | - | - | - | - |
| 1777344377 | 23.89° C | 40% | 969 hPa | - | - | - | - |
| 1777342577 | 23.89° C | 40% | 969 hPa | - | - | - | - |
| 1777340780 | 23.89° C | 40% | 969.2 hPa | - | - | - | - |
| 1777338980 | 23.89° C | 40% | 969.2 hPa | - | - | - | - |
| 1777337180 | 23.89° C | 40% | 969.3 hPa | - | - | - | - |
| 1777335380 | 23.89° C | 40% | 969.7 hPa | - | - | - | - |
* Rain since midnight (hover to see other rain measurements)
** Current wind speed in m/s (hover to see current wind gust speed)